Location: Duhort
(43.7240°N, 0.3226°W)
Time: 04:55:57
(UTC+00:00)

Daily predictions for brighter satellites

Satellite Brightness Start Highest point End
(mag) Time Altitude Azimuth Time Altitude Azimuth Time Altitude Azimuth
Cosmos 1980 Rocket 3.7 03:23:20 32° E 03:23:20 32° E 03:27:22 10° NE
NOSS 3-1 (A) 4.2 03:23:44 68° NE 03:23:48 68° NE 03:32:40 10° SE
ATLAS 3B R/B 3.7 03:27:51 38° N 03:30:09 48° NE 03:37:34 10° ESE
Cosmos 1697 Rocket 4.2 03:42:45 28° NNE 03:42:45 28° NNE 03:45:18 10° NNE
ATLAS 2AS CENTAUR R/B 3.0 03:47:22 60° N 03:47:22 60° N 03:53:12 10° NNE
Lacrosse 4 Rocket 3.7 03:49:00 22° E 03:49:00 22° E 03:51:01 10° ESE
Cosmos 1818 4.2 03:51:21 52° E 03:51:21 52° E 03:55:57 10° NE
USA 59 Rocket 2.6 03:53:36 14° NE 03:53:54 14° NE 03:56:10 10° ENE
Cosmos 2263 Rocket 2.7 04:00:00 48° NNE 04:01:03 56° ENE 04:06:33 10° SE
Cosmos 2082 4.5 04:03:04 32° N 04:05:18 49° ENE 04:10:46 10° SE
Cosmos 2266 Rocket 4.1 04:02:39 10° S 04:09:02 74° E 04:15:26 10° NNE
Cosmos 2227 Rocket 3.8 04:13:54 21° S 04:13:54 21° S 04:15:47 10° S
Cosmos 2285 Rocket 3.8 04:11:34 77° SW 04:11:34 77° SW 04:17:45 10° SSE
BREEZE-M DEB (TANK) 4.3 04:14:05 21° NE 04:14:05 21° NE 04:16:16 10° ENE
SL-16 R/B 4.4 04:17:25 10° SSE 04:21:52 24° ESE 04:26:18 10° NE
Gbstr 26 Del rocket 3.8 04:22:25 45° SSE 04:22:54 47° SE 04:27:50 10° ENE
USA 229 DEB 4.5 04:21:54 21° NNW 04:27:08 58° NE 04:35:05 10° SE
USA 229 4.5 04:22:01 21° NNW 04:27:15 57° NE 04:35:10 10° SE
Cosmos 1655 Rocket 4.3 04:22:16 10° S 04:28:35 68° E 04:34:53 10° NNE
Cosmos 1484 Rocket 3.8 04:26:01 10° NNE 04:29:21 40° E 04:30:40 28° SSE
IRAS Rocket 4.1 04:29:54 10° NNE 04:35:26 81° WNW 04:40:09 15° SSW
DELTA 2 R/B (1) 3.8 04:35:55 50° SW 04:36:53 57° S 04:42:20 10° ESE
Cosmos 2219 3.1 04:35:43 54° NW 04:36:53 69° WSW 04:42:29 10° SSE
S3M 3.8 04:30:42 10° NNW 04:36:56 73° W 04:43:03 10° S
BREEZE-M DEB (TANK) 3.5 04:39:16 26° ESE 04:39:16 26° ESE 04:40:58 10° E
Cosmos 1417 Rocket 4.4 04:34:39 10° NNW 04:40:37 57° W 04:46:35 10° S
H-2A R/B 2.5 04:39:35 10° N 04:43:10 39° NNW 04:43:10 39° NNW
BREEZE-M DEB (TANK) 2.7 04:45:30 65° ENE 04:45:30 65° ENE 04:50:57 10° ESE
Meteor 1-24 Rocket 3.5 04:44:54 10° SSW 04:50:21 64° WNW 04:55:41 10° N
SL-8 R/B 3.5 04:49:43 57° WSW 04:50:42 86° NNW 04:55:27 10° ENE
ARGOS 3.1 04:50:08 10° NNE 04:55:36 88° WNW 05:01:01 10° SSW
Thor Agena Rocket 3.4 04:51:58 10° N 04:57:09 70° WNW 05:02:15 10° SSW
Meteor 2-20 4.4 04:54:00 10° NNW 04:59:59 56° W 05:05:54 10° SSW
Cosmos 1844 Rocket 4.1 04:55:25 10° N 05:00:37 36° NE 05:05:46 10° ESE
Meteor 2-20 Rocket 4.2 04:55:01 10° NNW 05:00:54 77° W 05:06:37 10° S
Cosmos 2322 Rocket 4.1 04:56:29 10° SSE 05:01:22 31° ESE 05:06:15 10° NE
Cosmos 1980 Rocket 2.7 05:05:10 34° W 05:06:16 37° WNW 05:11:29 10° N
Sich 1 Rocket 4.3 05:02:07 10° N 05:06:32 56° E 05:10:57 10° SSE
IRS-1D 4.1 05:05:33 10° N 05:09:54 31° WNW 05:09:55 31° WNW
Cosmos 2369 3.9 05:07:06 23° WSW 05:10:19 48° WNW 05:15:49 10° NNE
USA 281 3.2 05:04:54 10° S 05:11:21 59° WSW 05:17:51 10° NNW
Cosmos 1378 Rocket 3.4 05:09:39 10° S 05:14:04 82° W 05:18:30 10° N
Atlas Centaur 2 3.7 05:15:05 10° SSW 05:15:53 10° SSW 05:16:39 10° S
Cosmos 1674 Rocket 3.5 05:11:47 10° S 05:16:05 84° E 05:20:25 10° N
ATLAS CENTAUR R/B 3.1 05:18:24 15° NNW 05:18:24 15° NNW 05:19:55 10° N
FengYun 1-2 T 4.2 05:12:57 10° NNE 05:18:37 82° WNW 05:24:16 10° SSW
Meteor 2-5 Rocket 4.1 05:13:30 10° SW 05:18:52 39° WNW 05:24:10 10° N
Cosmos 371 Rocket 3.3 05:16:35 15° NNW 05:20:26 56° WSW 05:25:09 10° S
ARIANE 6 FM1 Upper Stage 2.7 05:16:19 10° SW 05:20:31 81° SE 05:24:46 10° NE
USA 267 4.2 05:14:36 10° E 05:20:34 40° NNE 05:26:09 12° NW
ATLAS 3B R/B 3.2 05:15:09 17° NW 05:21:02 49° WSW 05:28:15 10° S
Okean 2 Rocket 3.1 05:17:42 10° N 05:22:12 87° E 05:26:39 10° S
Cosmos 1992 Rocket 4.0 05:17:46 10° SW 05:22:54 57° WNW 05:28:04 10° NNE
COSMO-SKYMED 1 2.5 05:18:37 10° S 05:22:57 78° WSW 05:27:18 10° NNW
Cosmos 1697 Rocket 4.3 05:24:30 16° NW 05:24:30 16° NW 05:27:51 10° N
Cosmos 1939 Rocket 3.6 05:21:38 10° N 05:24:25 27° WNW 05:24:25 27° WNW
Lacrosse 4 Rocket 2.2 05:24:51 27° W 05:25:27 28° WSW 05:28:58 10° S
Cosmos 1486 Rocket 4.3 05:20:16 10° NNW 05:25:28 68° ENE 05:30:39 10° SSE
Cosmos 332 Rocket 4.5 05:21:14 10° NNW 05:26:04 56° ENE 05:30:49 10° SE
NOAA 12 4.1 05:22:06 10° NNE 05:27:28 90° WSW 05:32:47 10° SSW
Cosmos 1844 4.5 05:23:54 10° NNW 05:29:27 53° ENE 05:35:02 10° SE
NOSS 2-1 (D) 3.6 05:29:47 15° NW 05:33:01 82° NE 05:38:25 10° SE
Cosmos 2098 Rocket 2.7 05:29:57 10° N 05:33:40 68° E 05:36:48 10° SSE
Cosmos 2227 4.2 05:30:05 10° NNW 05:35:47 82° WSW 05:41:29 10° SSE
SJ-11-01 4.2 05:33:03 10° N 05:37:43 76° WNW 05:42:22 10° SSW
CRYOSAT 2 4.5 05:33:07 10° S 05:38:00 82° E 05:42:54 10° N
ATLAS 2AS CENTAUR R/B 3.9 05:34:50 17° WNW 05:38:16 23° NNW 05:43:41 10° NNE
USA 59 Rocket 0.1 05:39:52 13° NW 05:43:29 84° SW 05:49:04 10° SSE
Cosmos 2263 Rocket 3.3 05:41:46 16° WNW 05:44:30 22° W 05:48:42 10° SSW
Cosmos 1455 Rocket 4.3 05:40:46 10° N 05:44:57 44° ENE 05:49:05 10° SSE
Cosmos 2237 4.2 05:40:17 10° SW 05:45:53 60° WNW 05:51:32 10° NNE
Nadezhda 1 Rocket 4.4 05:39:45 10° N 05:45:53 68° E 05:51:55 10° SSE
CBERS-1 4.4 05:43:02 10° N 05:47:48 40° WNW 05:52:33 10° SW
SL-08 R/B 4.4 05:43:43 10° SSW 05:49:48 74° W 05:55:59 10° N
Cosmos 2360 Rocket 2.7 05:47:41 10° SSW 05:53:13 65° ESE 05:58:47 10° NNE
Cosmos 1437 Rocket 3.4 05:50:10 10° SW 05:53:18 28° WNW 05:56:27 10° NNW
Cosmos 2151 Rocket 4.2 05:51:13 10° NNW 05:55:16 35° W 05:59:19 10° SSW
TIMED 4.4 05:52:51 10° NNW 05:57:08 68° WSW 06:01:24 10° S
Cosmos 1484 Rocket 4.3 06:00:45 10° NW 06:02:29 13° WNW 06:04:14 10° W
Cosmos 1606 2.3 06:00:12 10° N 06:03:36 90° ENE 06:06:57 10° S
Okean 1 Rocket 3.3 05:59:24 10° NNW 06:03:42 49° W 06:07:59 10° SSW
Cosmos 2084 Rocket 3.8 05:59:50 10° WSW 06:03:56 42° NW 06:07:57 10° NNE
BREEZE-M DEB (TANK) 3.5 05:59:20 11° WNW 06:04:17 35° N 06:06:28 10° ENE
Cosmos 1354 Rocket 4.4 05:59:24 10° NNW 06:04:43 70° ENE 06:09:58 10° SSE
SL-16 R/B 2.4 06:00:03 10° SW 06:05:33 52° WNW 06:11:06 10° NNE
Gbstr 26 Del rocket 3.8 06:04:57 10° W 06:09:31 50° NNW 06:15:10 10° ENE
NOSS 2-1 (E) 4.1 06:07:18 10° NW 06:11:16 51° SW 06:16:44 10° SSE
TRACE 4.3 06:09:11 10° SSE 06:12:25 85° WSW 06:15:42 10° NNW
CZ-2D R/B 3.0 06:09:14 10° N 06:12:43 59° WNW 06:16:10 10° SSW
EXPRESS MD2 2.5 06:09:48 10° WSW 06:13:09 58° NNW 06:15:29 10° NE
ADEOS Rocket 3.4 06:09:29 10° NNE 06:16:46 87° ESE 06:23:14 10° SSW
Geosat FO 4.4 06:14:18 10° SSE 06:17:43 77° WSW 06:21:01 10° NNW
CZ-2D R/B 3.3 06:14:24 10° N 06:18:21 78° WNW 06:22:21 10° SSW
SJ-12 4.1 06:17:07 10° N 06:20:54 45° WNW 06:24:40 10° SW
